Regional Weather Roundup
Issued by NWS

Home | Current Version | Previous Version | Graphics & Text | Print | Product List | Glossary On
Versions: 1 2 3 4 5 6 7 8 9 10 11 12 13 14 15 16 17 18 19 20 21 22 23 24 25 26 27 28 29 30 31 32 33 34 35 36 37 38 39 40 41 42 43 44 45 46 47 48 49 50
000
ASUS44 KMEG 202010
RWRTN
TENNESSEE HOURLY STATE WEATHER ROUNDUP
NATIONAL WEATHER SERVICE MEMPHIS TN
300 PM CDT WED AUG 20 2014

TNZ002-004-019-021-049-052-054-088>092-202100-
WEST TENNESSEE

CITY           SKY/WX    TMP DP  RH WIND       PRES   REMARKS
MEMPHIS INTL   MOSUNNY   94  69  44 SW8       30.02F HX  99
NWS MEMPHIS      N/A     94 N/A N/A MISG        N/A
JACKSON        MOSUNNY   93  73  52 SW7       30.01F HX 102
DYERSBURG      SUNNY     93  70  46 W10       30.00F HX  99
UNION CITY     MOSUNNY   91  79  66 SW10      29.97F HX 107
PARIS          MOSUNNY   90  77  66 SW9       29.99F HX 102
HUNTINGDON     MOSUNNY   90  77  65 W10       29.98F HX 103
LEXINGTON      MOSUNNY   93  75  55 SW7       29.99F HX 104
SAVANNAH       MOSUNNY   91  73  55 SW10      30.02F HX 100
$$

TNZ008-025-027-028-033-062-065-066-202100-
NORTH MIDDLE TENNESSEE

CITY           SKY/WX    TMP DP  RH WIND       PRES   REMARKS
NASHVILLE      PTSUNNY   93  73  52 W6G16     29.97S HX 102
PORTLAND       CLOUDY    82  70  65 SE6       29.97S
CLARKSVILLE    MOSUNNY   94  71  47 W8G20     29.95F HX 101
SMYRNA         PTSUNNY   86  71  60 E16       30.00R HX  91
MURFREESBORO   PTSUNNY   90  73  57 E14       29.99R HX  98
COOKEVILLE     SUNNY     84  79  84 CALM      30.02R HX  96
GALLATIN       CLOUDY    74  70  87 VRB7      30.04R
CROSSVILLE     PTSUNNY   85  71  63 SW8       30.06F HX  90
$$

TNZ061-075-076-078-094-096-097-202100-
SOUTH MIDDLE TENNESSEE

CITY           SKY/WX    TMP DP  RH WIND       PRES   REMARKS
LEWISBURG      PTSUNNY   95  77  55 SW8       29.99F HX 109
FAYETTEVILLE   MOSUNNY   90  73  58 W15       30.02F HX  98
TULLAHOMA      MOSUNNY   91  73  55 W10       30.04R HX 100
WINCHESTER     PTSUNNY   75  68  78 N7        30.05R
MCMINNVILLE    SUNNY     86  77  74 NW20G26   30.04R HX  97
COLUMBIA       MOSUNNY   93  75  55 W12       29.99F HX 104
SHELBYVILLE    SUNNY     95  75  52 W14       30.01R HX 107
$$

TNZ017-018-042-046-047-202100-
NORTHEAST TENNESSEE

CITY           SKY/WX    TMP DP  RH WIND       PRES   REMARKS
TRI CITIES     MOSUNNY   85  70  60 NW9       30.04F
ELIZABETHTON   CLEAR     84  70  61 W3        30.04F
$$

TNZ012-013-036-069-073-074-202100-
CENTRAL EAST TENNESSEE

CITY           SKY/WX    TMP DP  RH WIND       PRES   REMARKS
KNOXVILLE      TSTM      71  65  81 E10       30.02R
OAK RIDGE      LGT RAIN  72  70  93 N5        30.03F FOG
GATLINBURG     PTCLDY    84  72  65 W6        30.02R
MORRISTOWN       N/A     73  64  73 W21       30.08R
$$

TNZ083-085-099-202100-
SOUTHEAST TENNESSEE

CITY           SKY/WX    TMP DP  RH WIND       PRES   REMARKS
CHATTANOOGA    MOSUNNY   93  71  48 SW7       29.99F HX 100
$$

SKY/WX REPORTED AS FAIR MEANS FEW OR NO CLOUDS BELOW
12 THOUSAND FEET.




USA.gov is the U.S. government's official web portal to all federal, state and local government web resources and services.